Starlink 3305

operational
NORAD ID: 50166 Int'l Des: 2021-125 Owner: SPXS Country: US Constellation: starlink
LEOCIRCULAR

About Starlink 3305

Description loading...

Live Position

Loading 3D Globe...

Upcoming Passes

Altitude History

Altitude vs Time

uPlot chart will show altitude changes over time

Two-Line Element Set

1 50166U 21125L 25351.90087179 -.00000060 00000-0 14321-4 0 9998
2 50166 53.2164 256.2156 0001405 82.5186 277.5965 15.08835045224242
Epoch: Dec 17, 2025 • Age: 10 hours

Current Status

Altitude 544.6 km
Velocity 7.60 km/s
Sub-Earth Point 49.29°N, 172.76°E
Launch Date Dec 18, 2021
Age 3.9 years
Type internet

Technical Details

Classification Payload
Mass 290.00 kg
Dry Mass 270.00 kg
Total Mass 290.00 kg
Length 0.20 m
Diameter 2.80 m
Span 9.00 m
Shape Box + pan
Manufacturer SPXS
Bus Type Starlink
Phase Status In Orbit
Owner/State SPXS/US

Large Constellations

Loading constellations...